This demonstration page uses our WeatherBlox Daily Observations layout. Learn more.

Hourly Observations for January 20, 2020

Temp ( °F °C ) Dew Point ( °F °C ) Humidity (%) Winds ( mph kmh ) Pressure ( in mb ) Visibility ( mi km ) Precip ( " mm )
12:15 am 00:15 Clear 15 -9.4 12 -11 88 88 E 9 15 30.67 1038 10 16.0934 0 0
12:35 am 00:35 Clear 15 -9.5 12 -11.3 87 87 E 8 13 30.67 1039 10 16.0934 0 0
12:55 am 00:55 Clear 15 -9.7 11 -11.6 86 86 E 7 11 30.66 1038 10 16.0934 0 0
1:15 am 01:15 Clear 14 -9.9 10 -12.1 84 84 ESE 7 11 30.66 1038 10 16.0934 0 0
1:35 am 01:35 Clear 14 -10.1 10 -12.4 83 83 E 7 11 30.65 1038 10 16.0934 0 0
1:55 am 01:55 Clear 13 -10.3 10 -12.5 84 84 E 7 11 30.67 1038 10 16.0934 0 0
2:15 am 02:15 Clear 13 -10.5 9 -12.6 85 85 E 6 9 30.67 1039 10 16.0934 0 0
2:35 am 02:35 Clear 13 -10.5 9 -13 82 82 E 7 11 30.66 1038 10 16.0934 0 0
2:55 am 02:55 Clear 13 -10.3 8 -13.1 80 80 E 8 13 30.66 1038 10 16.0934 0 0
3:15 am 03:15 Clear 13 -10.5 8 -13.1 81 81 E 7 11 30.66 1038 10 16.0934 0 0
3:35 am 03:35 Clear 13 -10.6 9 -13 83 83 E 8 13 30.66 1038 10 16.0934 0 0
3:55 am 03:55 Clear 13 -10.8 9 -13 84 84 E 7 11 30.66 1038 10 16.0934 0 0
4:15 am 04:15 Clear 13 -10.7 9 -13 83 83 E 5 7 30.66 1038 10 16.0934 0 0
4:35 am 04:35 Clear 13 -10.8 8 -13.1 83 83 E 6 9 30.67 1039 10 16.0934 0 0
4:55 am 04:55 Clear 12 -11.1 8 -13.2 85 85 E 7 11 30.68 1039 10 16.0934 0 0
5:15 am 05:15 Clear 11 -11.5 8 -13.4 86 86 E 7 11 30.68 1039 10 16.0934 0 0
5:35 am 05:35 Clear 11 -11.6 8 -13.5 86 86 E 6 9 30.68 1039 10 16.0934 0 0
5:55 am 05:55 Clear 10 -12 8 -13.5 89 89 E 7 11 30.7 1039 10 16.0934 0 0
6:15 am 06:15 Clear 10 -12.3 7 -13.8 89 89 E 8 13 30.71 1040 10 16.0934 0 0
6:35 am 06:35 Clear 9 -12.6 7 -14.1 89 89 E 8 13 30.72 1040 10 16.0934 0 0
6:55 am 06:55 Clear 9 -13 6 -14.5 89 89 E 9 15 30.74 1041 10 16.0934 0 0
7:15 am 07:15 Clear 8 -13.3 5 -14.9 88 88 ENE 8 13 30.75 1041 10 16.0934 0 0
7:35 am 07:35 Clear 8 -13.5 5 -15 89 89 ENE 8 13 30.76 1042 10 16.0934 0 0
7:55 am 07:55 Clear 7 -13.7 4 -15.5 86 86 ENE 9 15 30.76 1042 10 16.0934 0 0
8:15 am 08:15 Sunny 7 -13.8 4 -15.8 85 85 E 8 13 30.78 1042 10 16.0934 0 0
8:35 am 08:35 Sunny 7 -13.7 4 -15.7 85 85 E 6 9 30.79 1042 10 16.0934 0 0
8:55 am 08:55 Sunny 8 -13.5 3 -16 82 82 E 8 13 30.79 1043 10 16.0934 0 0
9:15 am 09:15 Sunny 8 -13.1 4 -15.5 82 82 E 8 13 30.79 1043 10 16.0934 0 0
9:35 am 09:35 Sunny 8 -13.1 3 -16 79 79 E 10 17 30.79 1043 10 16.0934 0 0
9:55 am 09:55 Sunny 9 -12.7 4 -15.6 79 79 E 6 9 30.79 1043 10 16.0934 0 0
10:15 am 10:15 Sunny 10 -12.2 4 -15.5 77 77 E 7 11 30.79 1043 10 16.0934 0 0
10:35 am 10:35 Sunny 10 -12.1 4 -15.7 75 75 E 6 9 30.8 1043 10 16.0934 0 0
10:55 am 10:55 Sunny 11 -11.7 5 -15.2 76 76 ESE 5 7 30.79 1043 10 16.0934 0 0
11:15 am 11:15 Sunny 11 -11.5 4 -15.4 73 73 E 3 6 30.78 1042 10 16.0934 0 0
11:35 am 11:35 Sunny 13 -10.8 6 -14.6 74 74 Calm 30.76 1042 10 16.0934 0 0
11:55 am 11:55 Sunny 13 -10.6 6 -14.5 73 73 Calm 30.76 1042 10 16.0934 0 0
12:15 pm 12:15 Sunny 14 -9.9 7 -13.9 73 73 E 3 6 30.75 1041 10 16.0934 0 0
12:35 pm 12:35 Sunny 15 -9.5 8 -13.5 73 73 SE 5 7 30.73 1041 10 16.0934 0 0
12:55 pm 12:55 Sunny 16 -8.7 9 -13 71 71 E 5 7 30.72 1040 10 16.0934 0 0
1:15 pm 13:15 Sunny 17 -8.6 10 -12.5 74 74 ENE 8 13 30.71 1040 10 16.0934 0 0
1:35 pm 13:35 Sunny 17 -8.1 11 -11.8 75 75 E 5 7 30.69 1039 10 16.0934 0 0
1:55 pm 13:55 Sunny 18 -7.9 10 -12.2 72 72 E 6 9 30.68 1039 10 16.0934 0 0
2:15 pm 14:15 Sunny 19 -7.5 11 -11.9 71 71 ESE 5 7 30.68 1039 10 16.0934 0 0
2:35 pm 14:35 Sunny 19 -7 11 -11.5 71 71 ESE 7 11 30.66 1038 10 16.0934 0 0
2:55 pm 14:55 Sunny 20 -6.9 13 -10.8 74 74 SSE 6 9 30.66 1038 10 16.0934 0 0
3:15 pm 15:15 Sunny 20 -6.6 12 -10.9 72 72 SE 5 7 30.66 1038 10 16.0934 0 0
3:35 pm 15:35 Sunny 20 -6.5 12 -10.9 71 71 ESE 6 9 30.66 1038 10 16.0934 0 0
3:55 pm 15:55 Sunny 20 -6.4 13 -10.7 72 72 ESE 5 7 30.65 1038 10 16.0934 0 0
4:15 pm 16:15 Sunny 21 -6.2 13 -10.8 70 70 ESE 7 11 30.65 1038 10 16.0934 0 0
4:35 pm 16:35 Sunny 21 -6.2 13 -10.8 70 70 ESE 6 9 30.65 1038 10 16.0934 0 0
4:55 pm 16:55 Sunny 20 -6.5 13 -10.7 72 72 ESE 8 13 30.65 1038 10 16.0934 0 0
5:15 pm 17:15 Sunny 20 -6.6 12 -11.1 71 71 SE 7 11 30.65 1038 10 16.0934 0 0
5:35 pm 17:35 Sunny 19 -7 12 -11 73 73 SE 7 11 30.65 1038 10 16.0934 0 0
5:55 pm 17:55 Clear 19 -7.2 12 -10.9 75 75 SE 7 11 30.65 1038 10 16.0934 0 0
6:15 pm 18:15 Clear 18 -7.6 12 -11 77 77 SE 5 7 30.66 1038 10 16.0934 0 0
6:35 pm 18:35 Clear 18 -8 12 -11.3 77 77 SE 7 11 30.66 1038 10 16.0934 0 0
6:55 pm 18:55 Clear 17 -8.4 11 -11.4 79 79 SE 7 11 30.67 1038 10 16.0934 0 0
7:15 pm 19:15 Clear 17 -8.6 11 -11.5 80 80 SE 8 13 30.67 1039 10 16.0934 0 0
7:35 pm 19:35 Clear 16 -8.9 11 -11.6 81 81 SSE 6 9 30.69 1039 10 16.0934 0 0
7:55 pm 19:55 Clear 15 -9.2 10 -12 80 80 SE 7 11 30.68 1039 10 16.0934 0 0
8:15 pm 20:15 Clear 15 -9.5 10 -12.1 82 82 SE 7 11 30.69 1039 10 16.0934 0 0
8:35 pm 20:35 Clear 15 -9.5 10 -12 82 82 SE 6 9 30.68 1039 10 16.0934 0 0
8:55 pm 20:55 Clear 15 -9.7 10 -12 84 84 SSE 7 11 30.68 1039 10 16.0934 0 0
9:15 pm 21:15 Clear 14 -10.2 10 -12 87 87 SSE 7 11 30.69 1039 10 16.0934 0 0
9:35 pm 21:35 Clear 14 -10.2 10 -12 87 87 SSE 7 11 30.69 1039 10 16.0934 0 0
9:55 pm 21:55 Clear 13 -10.5 10 -12.3 87 87 SSE 7 11 30.67 1039 10 16.0934 0 0
10:15 pm 22:15 Clear 13 -10.6 10 -12.5 86 86 SSE 6 9 30.66 1038 10 16.0934 0 0
10:35 pm 22:35 Clear 13 -10.8 9 -12.7 86 86 SSE 5 7 30.66 1038 10 16.0934 0 0
10:55 pm 22:55 Clear 12 -11 9 -12.8 87 87 SE 5 7 30.65 1038 10 16.0934 0 0
11:15 pm 23:15 Clear 12 -11.1 9 -13 86 86 SSE 7 11 30.66 1038 10 16.0934 0 0
11:35 pm 23:35 Clear 12 -11 8 -13.1 85 85 SSE 8 13 30.65 1038 10 16.0934 0 0
11:55 pm 23:55 Clear 12 -11 8 -13.2 84 84 SSE 7 11 30.65 1038 10 16.0934 0 0

Powered by AerisWeather